Time,TemperatureF,DewpointF,PressureIn,WindDirection,WindDirectionDegrees,WindSpeedMPH,WindSpeedGustMPH,Humidity,HourlyPrecipIn,Conditions,Clouds,dailyrainin,SoftwareType,DateUTC
2013-03-16 00:14:00,34.6,25.0,29.59,NNW,332,8.0,-999.0,69,-99.99,,,0.00,weatherlink.com 1.10,2013-03-16 04:14:00,
2013-03-16 00:29:00,34.6,25.0,29.59,WNW,298,2.0,-999.0,69,-99.99,,,0.00,weatherlink.com 1.10,2013-03-16 04:29:00,
2013-03-16 00:44:00,34.4,25.0,29.59,North,355,7.0,-999.0,69,-99.99,,,0.00,weatherlink.com 1.10,2013-03-16 04:44:00,
2013-03-16 00:59:00,34.3,25.0,29.59,North,5,5.0,-999.0,69,-99.99,,,0.00,weatherlink.com 1.10,2013-03-16 04:59:00,
2013-03-16 01:14:00,34.3,25.0,29.59,NNE,13,3.0,-999.0,68,-99.99,,,0.00,weatherlink.com 1.10,2013-03-16 05:14:00,
2013-03-16 01:29:00,34.3,24.0,29.60,NW,321,5.0,-999.0,66,-99.99,,,0.00,weatherlink.com 1.10,2013-03-16 05:29:00,
2013-03-16 01:44:00,34.4,24.0,29.60,North,3,3.0,-999.0,66,-99.99,,,0.00,weatherlink.com 1.10,2013-03-16 05:44:00,
2013-03-16 01:59:00,34.1,24.0,29.61,NNW,329,2.0,-999.0,66,-99.99,,,0.00,weatherlink.com 1.10,2013-03-16 05:59:00,
2013-03-16 02:14:00,34.3,24.0,29.62,North,7,2.0,-999.0,65,-99.99,,,0.00,weatherlink.com 1.10,2013-03-16 06:14:00,
2013-03-16 02:29:00,33.8,24.0,29.63,North,5,2.0,-999.0,67,-99.99,,,0.00,weatherlink.com 1.10,2013-03-16 06:29:00,
2013-03-16 02:45:00,33.5,24.0,29.63,North,3,4.0,-999.0,67,-99.99,,,0.00,weatherlink.com 1.10,2013-03-16 06:45:00,
2013-03-16 02:59:00,33.2,23.0,29.63,North,5,2.0,-999.0,67,-99.99,,,0.00,weatherlink.com 1.10,2013-03-16 06:59:00,
2013-03-16 03:14:00,32.8,23.0,29.63,North,3,0.0,-999.0,68,-99.99,,,0.00,weatherlink.com 1.10,2013-03-16 07:14:00,
2013-03-16 03:29:00,31.8,23.0,29.64,North,2,0.0,-999.0,70,-99.99,,,0.00,weatherlink.com 1.10,2013-03-16 07:29:00,
2013-03-16 03:45:00,31.8,23.0,29.64,NNE,12,2.0,-999.0,70,-99.99,,,0.00,weatherlink.com 1.10,2013-03-16 07:45:00,
2013-03-16 04:00:00,31.9,23.0,29.65,ENE,77,5.0,-999.0,69,-99.99,,,0.00,weatherlink.com 1.10,2013-03-16 08:00:00,
2013-03-16 04:15:00,31.9,23.0,29.66,ENE,78,0.0,-999.0,69,-99.99,,,0.00,weatherlink.com 1.10,2013-03-16 08:15:00,
2013-03-16 04:30:00,31.3,23.0,29.66,ENE,78,0.0,-999.0,70,-99.99,,,0.00,weatherlink.com 1.10,2013-03-16 08:30:00,
2013-03-16 04:45:00,30.6,22.0,29.67,ENE,78,0.0,-999.0,71,-99.99,,,0.00,weatherlink.com 1.10,2013-03-16 08:45:00,
2013-03-16 05:00:00,29.4,22.0,29.68,ENE,78,0.0,-999.0,74,-99.99,,,0.00,weatherlink.com 1.10,2013-03-16 09:00:00,
2013-03-16 05:15:00,28.8,22.0,29.68,ENE,78,0.0,-999.0,75,-99.99,,,0.00,weatherlink.com 1.10,2013-03-16 09:15:00,
2013-03-16 05:30:00,28.4,22.0,29.69,ENE,78,0.0,-999.0,77,-99.99,,,0.00,weatherlink.com 1.10,2013-03-16 09:30:00,
2013-03-16 05:45:00,29.1,21.0,29.69,North,5,2.0,-999.0,71,-99.99,,,0.00,weatherlink.com 1.10,2013-03-16 09:45:00,
2013-03-16 06:00:00,29.7,19.0,29.70,North,0,2.0,-999.0,65,-99.99,,,0.00,weatherlink.com 1.10,2013-03-16 10:00:00,
2013-03-16 06:15:00,29.8,18.0,29.71,North,0,3.0,-999.0,63,-99.99,,,0.00,weatherlink.com 1.10,2013-03-16 10:15:00,
2013-03-16 06:30:00,29.7,18.0,29.71,North,9,0.0,-999.0,62,-99.99,,,0.00,weatherlink.com 1.10,2013-03-16 10:30:00,
2013-03-16 06:45:00,29.5,18.0,29.71,North,0,0.0,-999.0,62,-99.99,,,0.00,weatherlink.com 1.10,2013-03-16 10:45:00,
2013-03-16 07:00:00,29.3,18.0,29.71,NE,51,0.0,-999.0,62,-99.99,,,0.00,weatherlink.com 1.10,2013-03-16 11:00:00,
2013-03-16 07:15:00,29.3,18.0,29.72,NE,51,0.0,-999.0,62,-99.99,,,0.00,weatherlink.com 1.10,2013-03-16 11:15:00,
2013-03-16 07:30:00,29.5,18.0,29.72,NE,36,2.0,-999.0,62,-99.99,,,0.00,weatherlink.com 1.10,2013-03-16 11:30:00,
2013-03-16 07:45:00,30.0,18.0,29.73,NNE,26,0.0,-999.0,60,-99.99,,,0.00,weatherlink.com 1.10,2013-03-16 11:45:00,
2013-03-16 08:00:00,30.6,17.0,29.73,NE,46,3.0,-999.0,58,-99.99,,,0.00,weatherlink.com 1.10,2013-03-16 12:00:00,
2013-03-16 08:15:00,31.0,16.0,29.73,North,2,7.0,-999.0,54,-99.99,,,0.00,weatherlink.com 1.10,2013-03-16 12:15:00,
2013-03-16 08:30:00,31.2,15.0,29.73,NE,48,6.0,-999.0,51,-99.99,,,0.00,weatherlink.com 1.10,2013-03-16 12:30:00,
2013-03-16 08:45:00,31.6,14.0,29.73,NNE,17,9.0,-999.0,49,-99.99,,,0.00,weatherlink.com 1.10,2013-03-16 12:45:00,
2013-03-16 09:00:00,32.4,14.0,29.74,NNE,27,0.0,-999.0,47,-99.99,,,0.00,weatherlink.com 1.10,2013-03-16 13:00:00,
2013-03-16 09:15:00,32.4,14.0,29.73,NNE,30,3.0,-999.0,46,-99.99,,,0.00,weatherlink.com 1.10,2013-03-16 13:15:00,
2013-03-16 09:30:00,32.9,14.0,29.74,NNE,20,4.0,-999.0,46,-99.99,,,0.00,weatherlink.com 1.10,2013-03-16 13:30:00,
2013-03-16 09:45:00,32.8,13.0,29.74,North,0,5.0,-999.0,44,-99.99,,,0.00,weatherlink.com 1.10,2013-03-16 13:45:00,
2013-03-16 10:00:00,33.4,12.0,29.74,ENE,58,1.0,-999.0,41,-99.99,,,0.00,weatherlink.com 1.10,2013-03-16 14:00:00,
2013-03-16 10:15:00,33.7,12.0,29.74,NE,54,4.0,-999.0,40,-99.99,,,0.00,weatherlink.com 1.10,2013-03-16 14:15:00,
2013-03-16 10:30:00,34.0,11.0,29.73,NNE,17,5.0,-999.0,39,-99.99,,,0.00,weatherlink.com 1.10,2013-03-16 14:30:00,
2013-03-16 10:45:00,34.3,10.0,29.73,NE,54,0.0,-999.0,37,-99.99,,,0.00,weatherlink.com 1.10,2013-03-16 14:45:00,
2013-03-16 11:00:00,34.6,11.0,29.73,NNE,30,2.0,-999.0,38,-99.99,,,0.00,weatherlink.com 1.10,2013-03-16 15:00:00,
2013-03-16 11:15:00,35.2,10.0,29.73,North,3,0.0,-999.0,35,-99.99,,,0.00,weatherlink.com 1.10,2013-03-16 15:15:00,
2013-03-16 11:30:00,34.9,11.0,29.73,NNE,14,1.0,-999.0,37,-99.99,,,0.00,weatherlink.com 1.10,2013-03-16 15:30:00,
2013-03-16 11:45:00,35.3,10.0,29.73,WNW,297,5.0,-999.0,35,-99.99,,,0.00,weatherlink.com 1.10,2013-03-16 15:45:00,
2013-03-16 12:00:00,34.7,7.0,29.72,NNE,14,1.0,-999.0,31,-99.99,,,0.00,weatherlink.com 1.10,2013-03-16 16:00:00,
2013-03-16 12:15:00,35.0,8.0,29.72,WSW,249,6.0,-999.0,33,-99.99,,,0.00,weatherlink.com 1.10,2013-03-16 16:15:00,
2013-03-16 12:30:00,35.9,7.0,29.72,North,356,4.0,-999.0,30,-99.99,,,0.00,weatherlink.com 1.10,2013-03-16 16:30:00,
2013-03-16 12:45:00,36.0,7.0,29.72,North,2,0.0,-999.0,30,-99.99,,,0.00,weatherlink.com 1.10,2013-03-16 16:45:00,
2013-03-16 13:00:00,36.8,6.0,29.71,NNE,16,3.0,-999.0,28,-99.99,,,0.00,weatherlink.com 1.10,2013-03-16 17:00:00,
2013-03-16 13:15:00,37.5,7.0,29.70,ENE,57,4.0,-999.0,28,-99.99,,,0.00,weatherlink.com 1.10,2013-03-16 17:15:00,
2013-03-16 13:30:00,37.0,6.0,29.70,SSW,205,0.0,-999.0,27,-99.99,,,0.00,weatherlink.com 1.10,2013-03-16 17:30:00,
2013-03-16 13:45:00,37.0,6.0,29.69,NNE,20,5.0,-999.0,27,-99.99,,,0.00,weatherlink.com 1.10,2013-03-16 17:45:00,
2013-03-16 14:00:00,37.5,6.0,29.69,South,177,0.0,-999.0,27,-99.99,,,0.00,weatherlink.com 1.10,2013-03-16 18:00:00,
2013-03-16 14:15:00,38.2,5.0,29.69,North,352,0.0,-999.0,25,-99.99,,,0.00,weatherlink.com 1.10,2013-03-16 18:15:00,
2013-03-16 14:30:00,38.0,5.0,29.69,NE,51,3.0,-999.0,25,-99.99,,,0.00,weatherlink.com 1.10,2013-03-16 18:30:00,
2013-03-16 14:45:00,38.8,6.0,29.69,NNE,29,0.0,-999.0,25,-99.99,,,0.00,weatherlink.com 1.10,2013-03-16 18:45:00,
2013-03-16 15:00:00,38.2,5.0,29.69,SW,235,2.0,-999.0,25,-99.99,,,0.00,weatherlink.com 1.10,2013-03-16 19:00:00,
2013-03-16 15:15:00,38.0,6.0,29.69,NW,317,4.0,-999.0,26,-99.99,,,0.00,weatherlink.com 1.10,2013-03-16 19:15:00,
2013-03-16 15:30:00,38.3,4.0,29.69,NW,307,0.0,-999.0,24,-99.99,,,0.00,weatherlink.com 1.10,2013-03-16 19:30:00,
2013-03-16 15:45:00,38.2,5.0,29.69,SW,225,1.0,-999.0,25,-99.99,,,0.00,weatherlink.com 1.10,2013-03-16 19:45:00,
2013-03-16 16:00:00,38.8,6.0,29.69,WSW,243,0.0,-999.0,26,-99.99,,,0.00,weatherlink.com 1.10,2013-03-16 20:00:00,
2013-03-16 16:15:00,39.1,6.0,29.70,NNW,346,0.0,-999.0,25,-99.99,,,0.00,weatherlink.com 1.10,2013-03-16 20:15:00,
2013-03-16 16:30:00,38.9,6.0,29.68,NNW,336,3.0,-999.0,25,-99.99,,,0.00,weatherlink.com 1.10,2013-03-16 20:30:00,
2013-03-16 16:45:00,39.5,6.0,29.68,South,178,0.0,-999.0,25,-99.99,,,0.00,weatherlink.com 1.10,2013-03-16 20:45:00,
2013-03-16 17:01:00,38.0,15.0,29.68,SE,137,8.0,-999.0,39,-99.99,,,0.00,weatherlink.com 1.10,2013-03-16 21:01:00,
2013-03-16 17:16:00,36.8,16.0,29.69,SE,134,5.0,-999.0,42,-99.99,,,0.00,weatherlink.com 1.10,2013-03-16 21:16:00,
2013-03-16 17:31:00,36.5,16.0,29.68,South,175,8.0,-999.0,44,-99.99,,,0.00,weatherlink.com 1.10,2013-03-16 21:31:00,
2013-03-16 17:46:00,36.2,16.0,29.68,SE,144,5.0,-999.0,44,-99.99,,,0.00,weatherlink.com 1.10,2013-03-16 21:46:00,
2013-03-16 18:01:00,35.8,16.0,29.68,SE,134,5.0,-999.0,45,-99.99,,,0.00,weatherlink.com 1.10,2013-03-16 22:01:00,
2013-03-16 18:16:00,35.3,16.0,29.68,South,170,5.0,-999.0,46,-99.99,,,0.00,weatherlink.com 1.10,2013-03-16 22:16:00,
2013-03-16 18:31:00,34.4,16.0,29.68,SSE,158,6.0,-999.0,48,-99.99,,,0.00,weatherlink.com 1.10,2013-03-16 22:31:00,
2013-03-16 18:46:00,33.8,17.0,29.69,SSE,151,0.0,-999.0,50,-99.99,,,0.00,weatherlink.com 1.10,2013-03-16 22:46:00,
2013-03-16 19:01:00,33.1,17.0,29.69,SSE,160,2.0,-999.0,51,-99.99,,,0.00,weatherlink.com 1.10,2013-03-16 23:01:00,
2013-03-16 19:16:00,32.4,17.0,29.69,SSE,161,0.0,-999.0,53,-99.99,,,0.00,weatherlink.com 1.10,2013-03-16 23:16:00,
2013-03-16 19:31:00,32.1,18.0,29.70,SSE,163,0.0,-999.0,56,-99.99,,,0.00,weatherlink.com 1.10,2013-03-16 23:31:00,
2013-03-16 19:46:00,31.9,17.0,29.71,South,185,2.0,-999.0,55,-99.99,,,0.00,weatherlink.com 1.10,2013-03-16 23:46:00,
2013-03-16 20:01:00,32.2,18.0,29.71,SSW,192,0.0,-999.0,56,-99.99,,,0.00,weatherlink.com 1.10,2013-03-17 00:01:00,
2013-03-16 20:16:00,32.2,18.0,29.71,SSW,208,0.0,-999.0,57,-99.99,,,0.00,weatherlink.com 1.10,2013-03-17 00:16:00,
2013-03-16 20:46:00,32.4,19.0,29.73,SSW,208,0.0,-999.0,58,-99.99,,,0.00,weatherlink.com 1.10,2013-03-17 00:46:00,
2013-03-16 21:01:00,32.4,19.0,29.73,SSW,208,0.0,-999.0,59,-99.99,,,0.00,weatherlink.com 1.10,2013-03-17 01:01:00,
2013-03-16 22:16:00,32.5,20.0,29.74,SSW,208,0.0,-999.0,61,-99.99,,,0.00,weatherlink.com 1.10,2013-03-17 02:16:00,
2013-03-16 22:31:00,32.2,21.0,29.75,SSW,208,0.0,-999.0,63,-99.99,,,0.00,weatherlink.com 1.10,2013-03-17 02:31:00,
2013-03-16 23:31:00,32.4,21.0,29.76,SSW,208,0.0,-999.0,64,-99.99,,,0.00,weatherlink.com 1.10,2013-03-17 03:31:00,
2013-03-16 23:46:00,32.2,22.0,29.76,SSW,208,0.0,-999.0,65,-99.99,,,0.00,weatherlink.com 1.10,2013-03-17 03:46:00,